Regional Weather Roundup
Issued by NWS Sterling, VA

Home | Current Version | Previous Version | Graphics & Text | Print | Product List | Glossary On
Versions: 1 2 3 4 5 6 7 8 9 10 11 12 13 14 15 16 17 18 19 20 21 22 23 24 25 26 27 28 29 30 31 32 33 34 35 36 37 38 39 40 41 42 43 44 45 46 47 48 49 50
000
ASUS41 KLWX 240010
RWRLWX

REGIONAL WEATHER ROUNDUP
NATIONAL WEATHER SERVICE BALTIMORE MD/WASHINGTON DC
800 PM EDT WED JUL 23 2014

Note: "FAIR" indicates few or no clouds below 12,000 feet
with no significant weather and/or obstructions to visibility.
 TC=TEMPERATURE CELSIUS

 * =Non NWS site. Station does not report precipitation (e.g. rain,
    snow, etc.), thunder, or fog.

DCZ001-MDZ009-015-VAZ040>042-051-053>054-240100-
WASHINGTON METRO
  /KDAA//-FT BELVOIR

CITY           SKY/WX    TMP DP  RH WIND       PRES   REMARKS
WASHINGTON NAT CLOUDY    88  66  48 NW17G28   29.85R HX  90
DULLES         LGT RAIN  79  70  74 W10       29.87R
ANDREWS AFB    MOCLDY    85  74  70 S6        29.84R HX  92
QUANTICO       MOCLDY    86  75  69 NW5       29.84R HX  95
COLLEGE PARK*  CLOUDY    90  70  51 NW12      29.84R HX  95
LEESBURG*      CLOUDY    77  73  88 CALM      29.88S
MANASSAS*      CLOUDY    82  66  57 N12       29.85R
GAITHERSBURG*  CLOUDY    73  70  88 CALM      29.92R

$$

MDZ006>007-011-014-240100-
BALTIMORE METRO

CITY           SKY/WX    TMP DP  RH WIND       PRES   REMARKS
BWI AIRPORT    TSTM      82  68  62 N10G21    29.85R
MD SCIENCE CTR   N/A     76  70  82 MISG      29.86R
MARTIN STATE   TSTM      82  70  65 W21G39    29.89R VSB 1
ANNAPOLIS      PTCLDY    83  76  79 S12       29.83R HX  91
FORT MEADE*    CLOUDY    81  66  61 NW6       29.87R

$$

MDZ012-015-019>023-240100-
MARYLAND EASTERN SHORE

CITY           SKY/WX    TMP DP  RH WIND       PRES   REMARKS
OCEAN CITY     PTCLDY    79  75  87 SW15G23   29.87R
SALISBURY      NOT AVBL
BAY BRIDGE AP*   N/A     84  73  70 S7        29.84R HX  91
CAMBRIDGE*     CLEAR     82  72  69 S3        29.85R
EASTON*        PTCLDY    86  75  70 S6        29.89R HX  95

$$

MDZ017>025-240100-
SOUTHERN MARYLAND

CITY           SKY/WX    TMP DP  RH WIND       PRES   REMARKS
PATUXENT RIVER MOCLDY    86  73  65 S6        29.84R HX  93
ST INIGOES     CLEAR     86  71  60 S8        29.84R HX  91
LEONARDTOWN*   CLEAR     86  70  58 CALM      29.86R HX  90

$$

MDZ003>005-240100-
NORTH CENTRAL MARYLAND

CITY           SKY/WX    TMP DP  RH WIND       PRES   REMARKS
FREDERICK*     MOCLDY    79  75  89 CALM      29.88R
HAGERSTOWN APT MOCLDY    79  70  74 SE7       29.88R
WESTMINSTER*   CLOUDY    73  72  94 SE3       29.89R

$$

MDZ501>502-240100-
WESTERN MARYLAND

CITY           SKY/WX    TMP DP  RH WIND       PRES   REMARKS
OAKLAND*       MOCLDY    70  70 100 W7        30.02R
CUMBERLAND*    MOCLDY    88  68  51 CALM      29.93R HX  91

$$

VAZ025>031-240100-
SHENANDOAH VALLEY

CITY           SKY/WX    TMP DP  RH WIND       PRES   REMARKS
WINCHESTER*    CLOUDY    79  68  69 S5        29.90R
STAUNTON*      MOCLDY    73  68  83 CALM      29.93S

$$

WVZ021-048>050-054>055-240100-
EASTERN WEST VIRGINIA PANHANDLE

CITY           SKY/WX    TMP DP  RH WIND       PRES   REMARKS
MARTINSBURG    MOCLDY    78  71  79 SW6       29.88R
PETERSBURG*    MOCLDY    82  58  43 SW6       29.93R

$$

VAZ036>039-050-240100-
CENTRAL FOOTHILLS

CITY           SKY/WX    TMP DP  RH WIND       PRES   REMARKS
CHARLOTTESVILL TSTM      75  69  81 SW15G22   29.88R VSB 1
ORANGE*        MOCLDY    84  70  61 NW8       29.88R

$$

VAZ055>057-240100-
NORTH AND CENTRAL PIEDMONT

CITY           SKY/WX    TMP DP  RH WIND       PRES   REMARKS
FREDERICKSBRG* PTCLDY    87  74  65 W3        29.82S HX  95
STAFFORD*      MOCLDY    82  77  85 CALM      29.87S

$$

NCZ024-NYZ072-PAZ021-071-VAZ022-071-240100-
OTHER REGIONAL OBSERVATIONS

CITY           SKY/WX    TMP DP  RH WIND       PRES   REMARKS
NEW YORK CITY  MOCLDY    86  70  58 SW8       29.81R HX  90
PHILADELPHIA   CLOUDY    85  71  63 S8        29.82R THUNDER HX  90
PITTSBURGH     CLOUDY    70  63  78 N16       29.98R
ROANOKE        MOCLDY    86  64  48 W7        29.94S
RICHMOND       MOCLDY    90  69  50 SW13      29.87R HX  94
RALEIGH        PTCLDY    83  70  64 SW14      29.93S

$$

ANZ530>537-240100-
MARINE OBSERVATIONS

STATION/POSITION TIME  TEMP    WIND        PRES
                       AIR SEA DIR/SP/G
                 (UTC) (F)     (DEG/KT/KT) (MB)
THOMAS PT LIGHT  0000   82 80  170/ 14/ 15 1010.7R
BALT KEY BRIDGE  0000   84     160/  7/  9 1009.9R
COVE POINT       0000   82     190/ 12/ 14 1010.3R
LEWISETTA        0000   86 85  200/  7/  8 1010.4R
SOLOMONS ISLAND  0000      82                N/A
PINEY POINT      0000          220/  8/  9   N/A

$$




USA.gov is the U.S. government's official web portal to all federal, state and local government web resources and services.